Hourly Data Report for September 27, 2017

All times are specified in Local Standard Time (LST). Add 1 hour to adjust for Daylight Saving Time where and when it is observed.

WOODSTOCK NEWBRIDGE
NEW BRUNSWICK

46°09'08.000" N
67°32'34.000" W
154.00 m
8105603
71606
EWD

Download Data

Hourly Data (September 2017)
Hourly Data Report for September 27, 2017
Temp Definition
°C
Dew Point Temp Definition
°C
Rel Hum Definition
%
Wind Dir Definition
10's deg

Wind Spd Definition
km/h
Visibility Definition
km
Stn Press Definition
kPa
Hmdx Definition


Wind Chill Definition


Weather Definition


TIME
00:00 15.1 9.8 71 8 8   99.86     LegendNANA
01:00 14.2 9.7 75 9 7   99.85     LegendNANA
02:00 13.7 10.5 81 9 11   99.88     LegendNANA
03:00 13.7 11.1 84 9 11   99.82     LegendNANA
04:00 13.5 11.3 86 9 9   99.77     LegendNANA
05:00 13.2 11.6 90 10 10   99.73     LegendNANA
06:00 12.8 11.8 94 11 10   99.72     LegendNANA
07:00 12.6 11.7 94 10 10   99.66     LegendNANA
08:00 13.0 11.9 93 10 9   99.64     LegendNANA
09:00 13.7 12.3 92 11 6   99.63     LegendNANA
10:00 14.9 13.0 89 13 7   99.56     LegendNANA
11:00 16.5 14.0 85 15 8   99.47     LegendNANA
12:00 17.7 15.0 84 16 9   99.39     LegendNANA
13:00 18.9 16.1 84 14 6   99.30     LegendNANA
14:00 20.5 16.9 80 15 8   99.19 26   LegendNANA
15:00 22.6 17.8 75 16 10   99.11 28   LegendNANA
16:00 24.2 18.8 72 16 10   98.98 31   LegendNANA
17:00 24.3 19.1 73 15 9   98.85 31   LegendNANA
18:00 24.1 19.2 74 16 6   98.83 31   LegendNANA
19:00 23.2 19.0 77 14 5   98.79 30   LegendNANA
20:00 23.2 18.5 75 16 9   98.68 30   LegendNANA
21:00 22.8 17.6 73 18 12   98.72 29   LegendNANA
22:00 19.1 17.3 90 30 11   98.93     LegendNANA
23:00 17.8 17.1 96 27 2   98.76     LegendNANA

Notes on Data Quality.

Legend

  • E = Estimated
  • M = Missing
  • NA = Not Available
  • ‡ = Partner data that is not subject to review by the National Climate Archives
Date modified: